[[{"header":{"parameterUnit":"m.s-1","parameterCategory":1,"la1":30.2991,"la2":30.254,"lo1":-89.0895,"lo2":-89.0444,"dy":0.0017,"dx":0.0017,"nx":28,"ny":28,"refTime":"2023-08-11T21:00:00:Z","depth":0,"parameterNumber":2,"parameterNumberName":"U-component_of_WINDS"},"data":[0,0,0,0,0,0,0,0,0,0,0,0,0,0,0,0,0,0,0,0,0,0,0,0,0,0,0,0,0,0,0,0,0,0,0,0,0,0,0,0,0,0,0,0,0,0,0,0,0,0,0,0,0,0,0,0,0,0,3.3824,3.3824,0,3.3902,3.3903,3.3904,3.3914,3.3913,3.3913,3.3912,3.3993,3.3996,3.3999,0,0,0,0,0,0,0,0,0,0,0,0,0,3.3684,3.3686,3.3824,3.3825,3.3826,3.3902,3.3903,3.3904,3.3914,3.3913,3.3912,3.3912,3.3992,3.3996,3.3999,0,0,0,0,0,0,0,0,0,0,0,0,0,3.3752,3.3687,3.3823,3.384,3.3842,3.3902,3.3903,3.3905,3.3914,3.3913,3.3912,3.3911,3.3991,3.3995,3.4,3.4049,0,0,3.4013,3.4015,0,0,0,0,0,0,0,0,3.3748,3.3757,3.3836,3.3839,3.3841,3.3897,3.3884,3.3953,3.3915,3.3887,3.3912,3.3911,3.3962,3.3969,3.3986,3.4053,3.4056,3.4013,3.4016,3.4018,3.4019,0,0,0,0,0,0,0,3.3743,3.3754,3.3855,3.3837,3.3841,3.3844,3.3852,3.3897,3.393,3.3889,3.389,3.3899,3.3963,3.3982,3.3988,3.4057,3.4013,3.4017,3.4019,3.4021,3.4171,3.4172,0,0,0,0,0,0,3.3735,3.375,3.3852,3.3857,3.3791,3.3847,3.3857,3.388,3.393,3.3936,3.39,3.39,3.3975,3.3983,3.3991,3.4053,3.4018,3.4022,3.4024,3.417,3.4171,3.4173,0,0,0,0,0,0,3.3732,3.3744,3.3849,3.3804,3.3817,3.3851,3.3878,3.3883,3.3901,3.3938,3.3944,3.3913,3.3975,3.3985,3.4035,3.4056,3.4024,3.4027,3.4168,3.417,3.4172,3.4177,0,0,0,0,0,0,3.3728,3.3743,3.3762,3.3804,3.382,3.3891,3.3879,3.3885,3.3908,3.3908,3.3951,3.3957,3.3974,3.4028,3.4039,3.4062,3.4031,3.4166,3.4169,3.4171,3.4176,3.4179,3.4183,0,0,0,0,0,3.3723,3.376,3.3762,3.3775,3.3843,3.3892,3.3901,3.392,3.391,3.3929,3.3953,3.3956,3.4052,3.4033,3.4046,3.407,3.4165,3.4168,3.4171,3.4174,3.4179,3.4183,0,0,0,0,0,0,3.3719,3.3765,3.3769,3.382,3.3852,3.3894,3.3918,3.3924,3.3959,3.3958,3.3979,3.3989,3.4039,3.4059,3.4037,3.4121,3.4108,3.4114,3.4106,3.4111,3.4114,3.4108,3.4034,0,0,0,0,0,3.3724,3.3759,3.3798,3.384,3.3855,3.3884,3.3906,3.3918,3.3952,3.3965,3.3993,3.4026,3.4064,3.4089,3.4125,3.4179,3.4189,3.4202,3.4205,3.4208,3.4213,3.4244,3.4251,3.4183,3.4183,3.4183,0,0,3.3734,3.3764,3.3785,3.3839,3.3865,3.3902,3.3895,3.3934,3.3962,3.3971,3.402,3.4042,3.4081,3.4133,3.4158,3.4152,3.4234,3.4212,3.4214,3.4217,3.4248,3.4255,3.426,3.4185,3.4185,3.4184,0,0,3.3772,3.3798,3.3836,3.3863,3.3903,3.3922,3.3931,3.3973,3.3987,3.4037,3.4045,3.4079,3.4144,3.4171,3.4194,3.4245,3.425,3.4257,3.4276,3.4306,3.4312,3.4316,3.4336,3.4342,3.4261,3.4261,3.4261,0,3.378,3.3835,3.3855,3.3894,3.3919,3.3929,3.3969,3.3994,3.4044,3.4061,3.4054,3.4136,3.4163,3.4223,3.4235,3.4253,3.4265,3.4252,3.4309,3.4314,3.4319,3.4338,3.4345,3.4262,3.4262,3.4262,3.4262,0,3.3844,3.3883,3.3909,3.3957,3.3985,3.4024,3.405,3.4076,3.4086,3.4106,3.4158,3.419,3.4235,3.425,3.426,3.4312,3.4307,3.4305,3.4292,3.4326,3.4344,3.4351,3.4263,3.4263,3.4262,3.4262,0,0,3.388,3.394,3.395,3.3972,3.4018,3.4049,3.4089,3.4133,3.4155,3.419,3.4225,3.428,3.4278,3.4304,3.4318,3.4344,3.4384,3.4339,3.434,3.4346,3.4446,3.4447,3.4455,3.4388,3.4389,3.439,3.4443,0,3.3924,3.3996,3.4016,3.4077,3.4114,3.4125,3.4161,3.4193,3.4214,3.4249,3.4272,3.4311,3.4305,3.4321,3.4348,3.4374,3.4405,3.437,3.4422,3.4423,3.4411,3.4465,3.4466,3.4514,3.445,3.4451,3.4452,0,3.3984,3.4021,3.4086,3.4129,3.4145,3.4176,3.4219,3.4252,3.429,3.4303,3.4333,3.4344,3.4388,3.4373,3.4435,3.4411,3.4433,3.4449,3.4452,3.4457,3.4439,3.4472,3.4529,3.4537,3.4463,3.4462,3.4461,0,3.4006,3.4071,3.4119,3.4138,3.4189,3.4211,3.4233,3.427,3.4295,3.4333,3.435,3.4392,3.4415,3.4448,3.4471,3.4458,3.4532,3.4518,3.4545,3.4544,3.4559,3.4558,3.4621,3.4573,3.4573,3.4573,3.4573,0,3.4053,3.4092,3.4129,3.4158,3.4203,3.4226,3.4271,3.4294,3.4327,3.4361,3.4374,3.4407,3.4435,3.4472,3.4491,3.454,3.455,3.4562,3.4567,3.4561,3.456,3.4576,3.4574,3.4575,3.4574,3.4574,3.4574,0,3.4083,3.4109,3.4163,3.4207,3.4219,3.4251,3.4289,3.4319,3.434,3.4384,3.4396,3.443,3.4475,3.4501,3.4557,3.4569,3.4624,3.4626,3.4611,3.4613,3.4638,3.4636,3.4714,3.4726,3.467,3.467,3.4671,0,3.4112,3.4143,3.4191,3.4215,3.4238,3.4276,3.4303,3.4328,3.4355,3.4401,3.4426,3.4471,3.4508,3.4578,3.4609,3.4652,3.4656,3.4681,3.4663,3.4657,3.4658,3.4656,3.4659,3.4684,3.4684,3.4685,3.4685,0,3.416,3.4172,3.4209,3.4252,3.4284,3.4318,3.4353,3.4372,3.4403,3.4433,3.4479,3.4507,3.4565,3.461,3.4656,3.468,3.4688,3.4691,3.4699,3.4694,3.4684,3.4691,3.462,3.4689,3.4688,3.4688,3.4688,3.4688,3.4191,3.422,3.4259,3.43,3.4329,3.4362,3.4392,3.4418,3.4456,3.4505,3.4518,3.4566,3.4605,3.4667,3.4693,3.4731,3.4727,3.4739,3.4743,3.4745,3.4746,3.4678,3.474,3.474,3.474,3.4739,3.4739,0,3.4241,3.4267,3.4305,3.4354,3.4387,3.4392,3.4431,3.4459,3.4501,3.4536,3.4573,3.4626,3.467,3.4705,3.475,3.4775,3.478,3.4786,3.4785,3.479,3.4747,3.4735,3.4781,3.4781,3.4781,3.4781,3.4781,3.4781,3.4271,3.432,3.4336,3.44,3.4426,3.4473,3.4495,3.4526,3.4555,3.4613,3.465,3.4672,3.4708,3.4757,3.4798,3.4807,3.4823,3.4829,3.4839,3.4798,3.4793,3.4789,3.4778,3.4832,3.4832,3.4879,3.488,3.488]},{"header":{"parameterUnit":"m.s-1","parameterCategory":1,"la1":30.2991,"la2":30.254,"lo1":-89.0895,"lo2":-89.0444,"dy":0.0017,"dx":0.0017,"nx":28,"ny":28,"refTime":"2023-08-11T21:00:00:Z","depth":0,"parameterNumber":3,"parameterNumberName":"V-component_of_WINDS"},"data":[0,0,0,0,0,0,0,0,0,0,0,0,0,0,0,0,0,0,0,0,0,0,0,0,0,0,0,0,0,0,0,0,0,0,0,0,0,0,0,0,0,0,0,0,0,0,0,0,0,0,0,0,0,0,0,0,0,0,-0.4612,-0.4613,0,-0.4639,-0.4639,-0.4639,-0.4639,-0.4639,-0.4639,-0.4638,-0.4667,-0.4668,-0.4669,0,0,0,0,0,0,0,0,0,0,0,0,0,-0.4565,-0.4566,-0.4612,-0.4613,-0.4613,-0.4639,-0.4639,-0.4639,-0.4639,-0.4639,-0.4639,-0.4638,-0.4666,-0.4667,-0.4669,0,0,0,0,0,0,0,0,0,0,0,0,0,-0.4588,-0.4566,-0.4612,-0.4616,-0.4617,-0.4638,-0.4639,-0.4639,-0.4639,-0.4639,-0.4638,-0.4638,-0.4666,-0.4667,-0.4669,-0.4689,0,0,-0.4674,-0.4675,0,0,0,0,0,0,0,0,-0.4586,-0.4589,-0.4615,-0.4616,-0.4616,-0.4635,-0.4632,-0.4656,-0.464,-0.4631,-0.4638,-0.4638,-0.4657,-0.4659,-0.4665,-0.469,-0.4692,-0.4674,-0.4675,-0.4676,-0.4676,0,0,0,0,0,0,0,-0.4585,-0.4588,-0.4623,-0.4616,-0.4616,-0.4617,-0.462,-0.4637,-0.4646,-0.4632,-0.4632,-0.4635,-0.4657,-0.4663,-0.4666,-0.4692,-0.4674,-0.4675,-0.4676,-0.4677,-0.4737,-0.4738,0,0,0,0,0,0,-0.4582,-0.4587,-0.4622,-0.4623,-0.46,-0.4619,-0.4622,-0.463,-0.4646,-0.4648,-0.4635,-0.4635,-0.4661,-0.4664,-0.4667,-0.4692,-0.4676,-0.4677,-0.4678,-0.4737,-0.4738,-0.4738,0,0,0,0,0,0,-0.4581,-0.4585,-0.4621,-0.4605,-0.461,-0.462,-0.4629,-0.463,-0.4637,-0.4649,-0.4651,-0.464,-0.4661,-0.4664,-0.4684,-0.4693,-0.4678,-0.4679,-0.4736,-0.4737,-0.4738,-0.4743,0,0,0,0,0,0,-0.458,-0.4585,-0.4592,-0.4605,-0.4611,-0.4637,-0.463,-0.4631,-0.464,-0.4639,-0.4654,-0.4656,-0.4661,-0.4681,-0.4685,-0.4695,-0.4681,-0.4735,-0.4736,-0.4738,-0.4742,-0.4745,-0.4746,0,0,0,0,0,-0.4578,-0.4592,-0.4592,-0.4596,-0.4619,-0.4637,-0.464,-0.4645,-0.464,-0.4648,-0.4656,-0.4655,-0.4692,-0.4683,-0.4688,-0.4698,-0.4735,-0.4736,-0.4737,-0.4742,-0.4744,-0.4746,0,0,0,0,0,0,-0.4579,-0.4594,-0.4594,-0.4613,-0.4624,-0.4637,-0.4647,-0.4647,-0.466,-0.4659,-0.4665,-0.4669,-0.4688,-0.4695,-0.4686,-0.472,-0.4713,-0.4715,-0.4714,-0.4717,-0.4719,-0.4717,-0.4682,0,0,0,0,0,-0.4582,-0.4594,-0.4607,-0.4622,-0.4628,-0.4636,-0.4644,-0.4647,-0.4659,-0.4664,-0.4673,-0.4685,-0.4699,-0.4708,-0.4722,-0.4744,-0.4748,-0.4753,-0.4755,-0.4757,-0.4759,-0.4773,-0.4776,-0.4743,-0.4743,-0.4743,0,0,-0.4587,-0.4597,-0.4604,-0.4623,-0.4632,-0.4645,-0.464,-0.4655,-0.4665,-0.4666,-0.4685,-0.4692,-0.4706,-0.4727,-0.4737,-0.4734,-0.4769,-0.4759,-0.476,-0.4761,-0.4774,-0.4777,-0.478,-0.4744,-0.4744,-0.4744,0,0,-0.4604,-0.4612,-0.4626,-0.4635,-0.4649,-0.4655,-0.4659,-0.4672,-0.4677,-0.4697,-0.4698,-0.4711,-0.4735,-0.4746,-0.4754,-0.4777,-0.4777,-0.4781,-0.4791,-0.4804,-0.4807,-0.4809,-0.4819,-0.4822,-0.4783,-0.4783,-0.4783,0,-0.4609,-0.4629,-0.4634,-0.4649,-0.4657,-0.4659,-0.4675,-0.4683,-0.4701,-0.4707,-0.4704,-0.4735,-0.4745,-0.4769,-0.4775,-0.4781,-0.4786,-0.4779,-0.4806,-0.4809,-0.4811,-0.482,-0.4823,-0.4784,-0.4784,-0.4784,-0.4784,0,-0.4635,-0.4649,-0.4659,-0.4676,-0.4686,-0.4701,-0.471,-0.4719,-0.4722,-0.4729,-0.475,-0.4761,-0.4778,-0.4784,-0.4787,-0.4809,-0.4807,-0.4805,-0.4798,-0.4814,-0.4823,-0.4826,-0.4784,-0.4784,-0.4784,-0.4784,0,0,-0.4652,-0.4672,-0.4676,-0.4685,-0.4701,-0.4712,-0.4728,-0.4745,-0.4753,-0.4766,-0.478,-0.4802,-0.48,-0.481,-0.4814,-0.4825,-0.4845,-0.4822,-0.4822,-0.4826,-0.4872,-0.4874,-0.4878,-0.4845,-0.4846,-0.4846,-0.4871,0,-0.4671,-0.4698,-0.4704,-0.4728,-0.4742,-0.4745,-0.476,-0.4772,-0.4779,-0.4793,-0.4801,-0.4816,-0.4813,-0.4819,-0.483,-0.484,-0.4854,-0.4838,-0.4859,-0.486,-0.4856,-0.4882,-0.4884,-0.4906,-0.4874,-0.4875,-0.4875,0,-0.4696,-0.4709,-0.4735,-0.4751,-0.4757,-0.4769,-0.4786,-0.4799,-0.4813,-0.4818,-0.483,-0.4833,-0.4851,-0.4844,-0.4869,-0.4859,-0.4868,-0.4874,-0.4875,-0.4878,-0.4869,-0.4885,-0.4913,-0.4917,-0.488,-0.488,-0.488,0,-0.4707,-0.4731,-0.475,-0.4757,-0.4776,-0.4785,-0.4793,-0.4807,-0.4817,-0.4832,-0.4839,-0.4856,-0.4865,-0.4879,-0.4887,-0.4881,-0.4913,-0.4906,-0.4918,-0.4918,-0.4925,-0.4924,-0.4955,-0.493,-0.493,-0.493,-0.493,0,-0.4727,-0.4743,-0.4756,-0.4767,-0.4786,-0.4793,-0.4812,-0.482,-0.4833,-0.4847,-0.4851,-0.4865,-0.4875,-0.489,-0.4897,-0.4918,-0.4922,-0.4927,-0.4929,-0.4927,-0.4927,-0.4933,-0.4932,-0.4931,-0.4931,-0.4931,-0.4931,0,-0.4742,-0.4751,-0.4772,-0.4788,-0.4793,-0.4806,-0.4821,-0.4833,-0.4841,-0.4859,-0.4864,-0.4877,-0.4895,-0.4905,-0.4928,-0.4933,-0.4957,-0.4958,-0.4952,-0.4953,-0.4965,-0.4964,-0.5002,-0.5008,-0.4978,-0.4979,-0.4979,0,-0.4755,-0.4767,-0.4785,-0.4795,-0.4803,-0.4819,-0.483,-0.4838,-0.4849,-0.4868,-0.4878,-0.4897,-0.4912,-0.4942,-0.4954,-0.4972,-0.4974,-0.4986,-0.4976,-0.4975,-0.4975,-0.4974,-0.4976,-0.4987,-0.4987,-0.4988,-0.4988,0,-0.4777,-0.4781,-0.4795,-0.4812,-0.4825,-0.4839,-0.4852,-0.486,-0.4872,-0.4884,-0.4903,-0.4915,-0.4939,-0.4958,-0.4978,-0.4988,-0.499,-0.4991,-0.4995,-0.4993,-0.499,-0.4993,-0.4957,-0.499,-0.499,-0.4989,-0.4989,-0.4989,-0.4791,-0.4803,-0.4818,-0.4835,-0.4846,-0.4859,-0.4872,-0.4882,-0.4898,-0.4918,-0.4922,-0.4943,-0.4959,-0.4985,-0.4996,-0.5013,-0.501,-0.5016,-0.5017,-0.5019,-0.502,-0.4987,-0.5016,-0.5016,-0.5016,-0.5016,-0.5016,0,-0.4814,-0.4824,-0.4839,-0.4859,-0.4872,-0.4873,-0.4889,-0.4901,-0.4919,-0.4933,-0.4949,-0.4971,-0.4991,-0.5005,-0.5024,-0.5035,-0.5037,-0.504,-0.504,-0.5042,-0.502,-0.5015,-0.5039,-0.5039,-0.5039,-0.5039,-0.5039,-0.5039,-0.4827,-0.4847,-0.4854,-0.488,-0.4891,-0.491,-0.4919,-0.4932,-0.4944,-0.4969,-0.4985,-0.4994,-0.5009,-0.503,-0.5048,-0.5052,-0.506,-0.5063,-0.5067,-0.5046,-0.5044,-0.5041,-0.5037,-0.5064,-0.5064,-0.5088,-0.5088,-0.5088]}]]